Temperature
15 13 13 13 13 15 15 15 14 13 14 14 13 12 12 13 13 14 14 15 15 15 16 16 17 17 17 17 16 16 15 14 14 13 13 12 12 12 11 11 11 10 10 9
13 13 13 14 14 14 14 14 13 13 14 13 12 12 12 13 13 13 13 14 15 16 16 16 16 16 16 16 15 15 15 14 13 13 12 12 11 11 11 10 10 10 9 9
14 14 15 14 14 14 14 14 14 14 13 12 12 13 14 13 13 13 13 14 15 15 15 15 16 15 15 15 15 14 14 14 13 13 12 12 11 11 11 10 10 9 9 8
12 13 14 14 14 14 13 14 13 14 13 11 12 12 13 13 13 13 13 14 14 14 15 15 15 15 14 14 14 14 13 13 13 12 12 11 11 11 10 10 9 9 9 8
13 14 15 15 15 14 14 14 13 13 12 11 11 12 11 12 13 13 13 13 13 14 14 14 14 13 13 13 13 13 13 12 12 12 12 11 11 10 10 10 10 9 9 8
13 14 15 15 14 14 13 12 10 9 9 12 12 11 12 11 12 12 12 13 13 13 13 13 13 13 13 12 12 12 12 12 11 11 11 10 10 10 10 9 9 9 9 8
14 14 14 14 14 13 13 12 12 13 12 12 12 11 11 12 11 11 12 13 13 13 13 13 12 12 12 12 12 11 11 11 11 10 10 10 9 9 9 8 8 8 8 8
14 14 14 14 14 13 13 13 13 14 12 11 11 10 11 11 10 11 13 13 13 13 12 12 12 12 11 11 11 11 11 10 10 10 9 9 8 8 8 7 7 7 7 7
13 14 13 13 13 13 12 12 11 10 11 11 10 10 11 11 10 10 11 12 13 12 12 12 11 11 11 11 10 10 10 10 9 9 8 8 8 7 7 7 6 6 6 6
13 14 13 13 13 12 12 10 9 10 12 12 11 11 11 12 11 10 10 11 12 12 12 11 11 11 10 10 10 9 9 9 8 8 7 7 7 6 6 6 6 6 6 5
13 14 13 13 12 12 11 11 10 9 9 10 11 11 11 11 10 10 10 12 12 12 11 11 11 10 10 9 9 9 8 8 7 7 7 6 6 6 6 6 5 5 5 5
12 11 12 12 12 11 11 11 9 11 10 8 9 10 11 10 10 10 11 11 11 11 11 10 10 10 9 9 8 8 7 7 6 6 6 6 5 5 5 5 5 5 5 5
11 11 12 13 12 11 11 10 9 9 8 6 8 11 10 9 10 10 10 10 10 10 10 10 10 9 9 8 7 7 6 6 6 5 5 5 5 5 5 5 5 5 4 4
11 11 12 13 12 11 11 11 9 9 8 7 8 10 11 10 9 9 9 10 10 10 10 9 9 8 8 7 6 6 5 5 5 5 5 5 5 5 4 4 4 4 4 3
11 11 11 11 12 11 11 11 9 9 9 10 9 9 10 9 8 9 9 9 9 9 9 9 8 7 6 6 5 5 5 4 4 4 4 4 4 4 4 4 3 3 3 2
9 11 10 11 10 9 9 9 9 9 9 8 8 8 8 9 9 8 9 9 9 9 8 7 7 6 5 5 4 4 4 4 4 4 4 4 3 3 3 3 3 2 2 1
8 9 9 9 9 10 9 9 9 8 7 8 8 8 7 7 7 8 9 9 8 8 7 6 6 5 5 4 4 4 4 4 3 3 3 3 3 3 2 2 2 1 1 0
7 8 7 7 9 9 10 10 9 8 8 7 8 7 7 7 8 9 9 8 8 7 6 6 5 5 4 4 3 3 3 3 3 3 3 3 2 2 1 1 1 0 -0 -1
7 7 6 6 7 7 9 9 8 8 8 7 6 6 7 8 7 8 8 7 7 6 5 5 4 4 4 3 3 3 3 3 3 2 2 2 1 1 1 1 0 -1 -1 -2
6 7 6 5 7 8 9 10 9 8 8 7 7 6 7 6 5 6 7 7 6 5 5 4 4 4 3 3 3 3 3 2 2 2 2 1 1 0 -0 -0 -1 -1 -2 -3
6 6 6 5 6 7 8 9 9 8 9 8 8 8 7 6 6 7 6 6 5 5 4 4 3 3 3 3 2 2 2 2 1 1 1 1 0 -0 -1 -1 -2 -3 -3 -4
6 6 5 5 5 7 8 7 8 8 8 8 8 8 7 7 6 6 5 5 4 4 4 3 3 3 3 3 2 2 2 1 1 1 1 0 -0 -1 -1 -2 -2 -3 -4 -5
6 7 6 6 8 8 8 8 9 9 9 8 8 7 7 6 5 5 4 4 4 4 3 3 3 3 3 2 2 1 1 1 1 0 0 -0 -1 -1 -2 -3 -3 -4 -5 -6
5 5 5 5 5 7 8 8 8 8 8 7 7 6 6 5 4 4 4 4 3 3 3 3 2 2 2 2 2 1 1 0 -0 -0 -1 -1 -1 -2 -3 -4 -4 -5 -6 -6
6 4 4 5 5 6 6 7 7 7 7 6 6 5 5 4 4 3 3 3 3 3 3 2 2 2 2 1 1 1 0 -0 -1 -1 -1 -2 -2 -3 -4 -4 -5 -6 -6 -7
4 5 5 6 6 5 6 7 7 6 6 5 5 4 4 3 3 3 3 3 3 3 2 2 2 1 1 1 1 0 -0 -1 -2 -2 -2 -3 -4 -4 -5 -6 -6 -6 -7 -6
Wind_Speed
3 3 4 8 8 4 2 3 6 7 4 4 6 8 9 6 3 4 5 7 9 9 8 10 11 10 8 5 1 3 5 6 6 4 4 4 6 5 5 11 15 18 19 19
4 5 8 4 4 3 3 4 6 6 2 2 6 7 5 2 2 2 3 6 8 9 11 13 12 12 10 7 4 1 2 4 6 5 4 3 3 4 5 9 14 18 19 19
8 6 1 4 4 4 4 5 5 5 5 3 4 5 2 2 2 3 4 4 6 8 9 10 11 11 10 10 7 3 1 2 4 5 3 3 2 1 2 4 6 12 17 18
7 6 3 5 5 7 5 5 5 2 2 5 4 3 4 1 1 1 2 4 6 7 7 8 9 9 9 8 7 6 4 3 2 4 4 5 5 5 6 4 5 7 14 17
6 4 4 5 6 8 6 2 2 1 2 3 2 2 7 2 5 6 3 1 3 5 6 7 7 7 7 7 7 6 6 5 3 2 4 5 6 6 5 4 6 7 7 12
6 3 4 5 1 4 5 5 5 5 4 2 3 4 6 5 7 6 5 4 2 3 5 6 6 6 7 7 7 7 7 6 3 1 2 4 6 7 7 7 7 6 5 6
4 3 2 3 5 3 4 4 4 4 3 4 1 3 8 5 5 7 9 7 4 2 2 4 5 7 7 8 7 7 7 6 4 2 1 3 5 6 7 8 7 7 5 5
3 4 4 4 6 6 5 6 5 3 4 5 3 6 7 4 4 4 6 7 5 3 1 1 3 4 5 6 6 6 6 5 5 4 4 3 4 4 5 6 6 6 6 7
7 5 1 1 1 8 6 3 5 5 2 4 6 7 8 1 4 5 6 6 5 3 1 1 3 4 4 5 5 5 6 6 6 6 6 6 5 4 6 6 6 6 7 7
9 4 1 0 4 4 4 8 6 4 2 4 7 6 5 5 5 5 6 6 5 2 1 1 2 3 4 4 5 5 5 5 5 6 6 5 6 6 6 6 8 8 8 8
6 5 2 1 6 7 5 4 5 4 4 4 4 7 6 7 8 8 8 6 4 3 1 1 2 3 4 5 5 5 6 6 6 7 6 7 7 7 7 7 8 8 8 9
5 5 3 5 1 3 6 7 8 5 5 5 4 8 4 4 5 6 5 4 3 3 2 2 2 3 4 5 6 6 6 6 6 6 6 7 7 8 8 8 9 9 9 9
7 6 2 3 3 0 3 5 5 5 5 6 6 8 2 2 3 4 5 4 3 4 3 2 2 4 5 6 6 6 7 7 7 6 7 8 8 9 9 10 10 10 10 10
6 5 7 8 7 7 5 6 7 7 5 7 10 9 5 5 4 4 5 5 5 4 2 1 3 4 5 5 5 6 7 6 7 7 7 8 9 9 10 10 10 10 10 11
6 5 6 6 3 4 6 8 9 11 10 12 10 11 11 9 8 7 6 5 5 2 0 2 3 4 5 5 6 6 7 7 7 8 9 9 10 10 10 10 11 11 11 12
4 5 4 3 1 3 6 11 12 12 10 10 10 11 6 3 5 6 6 6 5 3 3 4 5 5 5 5 6 7 7 8 8 9 10 10 10 10 11 12 12 12 12 12
6 7 5 4 2 4 9 11 11 8 8 9 10 8 4 4 6 7 7 7 5 3 4 5 5 5 5 6 6 7 8 8 9 10 10 11 11 11 12 13 13 14 14 13
8 8 5 2 2 8 8 2 6 6 6 8 6 4 6 6 4 3 5 6 5 3 4 5 5 5 5 5 6 8 8 9 9 10 11 11 11 12 13 13 14 14 13 13
4 7 5 4 5 9 9 5 7 7 6 6 7 7 5 3 3 3 3 4 4 3 3 4 5 5 5 7 8 8 9 9 10 11 11 11 11 13 14 15 15 14 14 15
4 4 6 5 5 8 8 2 4 4 5 5 8 8 6 5 1 4 2 2 2 3 3 4 5 5 6 8 7 8 10 10 11 12 12 12 12 13 15 16 16 15 14 16
5 4 6 7 7 9 7 3 5 4 6 6 8 7 7 7 5 3 1 2 2 3 4 5 6 7 8 8 8 9 11 12 12 12 12 12 12 12 14 15 14 14 15 15
9 8 8 7 6 10 4 8 8 6 3 7 7 6 6 6 3 2 2 3 4 5 5 6 6 8 9 8 8 10 12 13 12 12 12 13 12 12 13 14 15 14 14 16
8 8 7 10 8 3 3 5 3 6 6 6 5 5 4 3 2 2 3 4 5 6 6 6 7 9 10 9 9 11 13 13 13 13 13 13 13 11 11 13 15 15 12 13
5 3 5 5 7 5 2 3 3 4 5 5 4 3 3 3 2 3 4 5 5 6 7 6 8 9 12 11 10 11 13 12 13 14 14 13 13 14 12 10 11 12 13 14
5 7 4 5 5 1 3 5 5 4 5 4 3 2 2 3 3 3 4 6 6 7 7 7 8 10 13 13 12 12 12 12 13 14 14 13 12 13 14 12 10 13 12 15
5 7 8 7 6 6 5 5 6 5 3 3 2 1 1 2 4 4 5 6 7 8 8 9 10 11 13 13 13 13 11 10 12 13 13 11 11 12 12 14 15 19 21 27
Wind_Direction
41 76 223 222 205 204 206 235 266 268 293 314 273 285 301 319 55 60 33 22 22 16 1 16 25 29 39 47 91 191 191 185 161 158 178 202 229 226 228 230 229 225 223 220
32 261 238 206 178 189 208 258 273 289 321 316 304 302 309 23 64 64 48 34 25 18 16 18 23 29 32 30 26 39 196 185 181 174 161 175 190 216 222 228 231 229 227 225
208 239 173 157 177 189 224 219 242 271 333 17 338 339 18 41 53 50 38 35 34 32 25 17 20 22 25 24 14 25 65 175 183 167 136 113 90 347 286 244 240 235 232 230
234 261 213 199 211 180 255 238 209 228 348 309 16 301 257 247 287 349 25 32 37 32 35 31 25 21 20 14 15 33 51 80 129 155 166 187 213 239 243 235 239 239 232 232
247 227 191 206 224 181 211 86 121 151 163 313 330 204 278 239 221 225 213 90 52 45 48 40 29 24 23 18 25 34 52 60 81 142 182 202 235 250 266 267 265 259 245 238
245 254 214 204 111 142 125 85 64 61 81 298 227 180 273 221 212 206 198 191 129 77 54 40 30 31 26 22 26 30 44 45 49 100 183 214 243 263 280 280 277 274 264 250
265 244 225 139 116 72 110 90 9 348 6 262 226 203 252 248 232 205 188 187 178 139 71 34 30 27 20 17 15 16 27 23 18 19 302 253 253 260 265 276 279 283 282 271
226 269 221 188 179 171 170 144 162 239 261 289 292 235 254 287 290 213 165 160 167 176 163 29 32 29 12 6 6 5 6 358 353 351 330 303 278 267 267 270 270 272 270 272
189 241 57 98 139 138 135 160 153 134 177 272 283 289 303 62 56 106 131 149 183 201 217 28 23 21 6 355 351 349 347 342 341 341 335 329 320 299 289 289 279 272 270 275
160 186 169 63 98 33 142 140 109 130 193 275 294 280 255 231 195 172 174 191 208 208 199 34 15 2 352 344 336 344 347 334 331 337 335 328 325 317 305 300 296 290 286 282
152 158 187 148 193 186 131 133 125 124 161 180 273 276 229 215 201 194 203 207 204 197 174 47 0 346 342 342 346 346 345 342 338 336 332 330 324 319 312 300 293 291 290 289
149 130 210 247 237 177 177 175 153 165 214 188 208 268 282 224 202 186 195 192 166 142 119 74 4 349 350 348 346 346 343 340 329 325 324 319 313 312 309 301 296 294 291 288
138 124 86 346 354 49 205 187 175 139 133 168 188 258 302 101 129 161 167 155 130 117 99 56 11 353 344 339 339 339 338 331 324 324 321 316 313 311 305 299 297 296 293 291
123 138 177 206 218 189 201 194 171 153 179 212 221 242 253 235 213 189 167 153 139 130 104 30 346 333 329 329 328 327 323 319 318 318 314 309 306 302 297 295 293 292 291 291
122 183 220 238 218 188 216 212 196 203 207 219 235 231 239 234 219 198 178 162 152 153 326 321 316 314 319 324 322 319 314 314 315 313 308 301 298 297 296 295 293 292 289 288
121 167 175 262 188 223 257 244 228 230 230 237 259 266 245 216 154 160 172 173 180 207 269 298 308 312 314 313 310 311 309 308 309 305 299 297 298 299 298 297 297 295 292 290
147 139 149 245 304 350 271 241 220 215 210 202 230 243 170 149 163 179 190 193 196 229 274 292 297 295 296 295 297 298 296 301 303 299 297 297 297 298 298 299 299 296 295 291
149 146 155 176 133 238 245 195 181 198 226 211 210 187 164 168 183 212 195 187 207 249 275 287 289 290 291 289 292 291 293 297 298 297 296 296 297 297 299 299 297 296 294 293
149 141 138 157 222 273 287 242 183 191 247 205 177 167 152 109 41 324 214 181 199 235 257 264 268 274 283 289 290 296 298 298 297 296 295 296 296 298 301 301 300 299 299 298
74 112 135 155 197 244 250 188 159 122 255 202 162 161 156 126 98 269 227 200 255 277 275 276 284 287 288 287 293 297 296 298 297 295 295 295 295 296 298 299 300 300 298 298
130 149 178 188 219 258 251 181 132 183 247 171 162 166 167 182 202 220 303 292 286 294 291 290 291 287 283 288 295 292 293 292 291 292 294 295 293 292 294 296 297 299 300 299
175 177 190 170 201 249 205 145 183 208 131 141 157 171 186 212 244 282 302 303 313 310 302 298 291 287 288 289 289 289 291 291 293 295 297 297 296 295 300 299 300 299 299 301
204 195 188 194 212 265 190 195 183 143 141 158 167 183 186 211 251 290 303 304 300 292 287 284 281 287 291 288 282 286 292 296 299 300 299 300 300 296 292 294 299 303 301 301
233 170 172 236 260 245 215 154 141 140 142 153 154 157 163 200 245 277 284 285 288 285 284 284 289 290 294 293 287 282 290 296 298 299 302 302 303 304 300 293 294 298 301 301
210 167 190 243 263 199 221 197 165 136 119 113 104 123 168 198 242 256 268 277 278 281 282 280 282 286 289 293 291 288 289 294 296 298 299 301 300 301 304 300 294 297 291 292
191 181 184 221 218 192 216 198 168 155 157 157 157 174 195 201 234 258 265 268 273 278 281 285 285 285 289 292 292 291 287 286 291 299 301 301 303 303 303 305 304 299 300 302
Height
1537 1541 1543 1540 1540 1539 1540 1542 1544 1541 1535 1535 1534 1533 1529 1525 1525 1525 1524 1523 1522 1521 1521 1520 1518 1517 1516 1515 1515 1516 1517 1518 1520 1521 1523 1525 1526 1528 1529 1530 1531 1531 1532 1532
1540 1541 1535 1534 1536 1539 1540 1543 1543 1539 1535 1536 1535 1534 1528 1526 1526 1526 1525 1525 1524 1523 1523 1522 1521 1519 1518 1517 1517 1517 1517 1518 1519 1520 1521 1522 1523 1524 1525 1526 1526 1526 1525 1525
1539 1535 1532 1534 1536 1538 1540 1542 1540 1539 1537 1536 1537 1533 1530 1528 1527 1527 1526 1526 1525 1525 1524 1524 1523 1522 1521 1520 1519 1518 1518 1518 1519 1519 1520 1520 1520 1520 1521 1521 1521 1521 1520 1519
1536 1532 1532 1532 1534 1535 1541 1535 1537 1537 1542 1545 1542 1545 1533 1529 1528 1527 1527 1526 1526 1526 1526 1526 1525 1524 1523 1523 1522 1521 1520 1520 1520 1520 1520 1519 1519 1518 1518 1517 1515 1515 1514 1512
1533 1529 1530 1531 1530 1532 1534 1533 1536 1538 1542 1547 1546 1547 1538 1530 1529 1528 1527 1527 1527 1527 1527 1527 1527 1526 1526 1525 1524 1523 1522 1522 1521 1520 1520 1519 1518 1517 1515 1514 1512 1510 1508 1506
1529 1527 1526 1526 1527 1529 1532 1537 1542 1547 1550 1550 1542 1547 1537 1532 1526 1525 1525 1526 1527 1528 1528 1528 1528 1528 1527 1527 1526 1525 1524 1523 1522 1520 1519 1518 1516 1514 1512 1510 1508 1506 1504 1502
1528 1526 1524 1525 1528 1531 1533 1541 1549 1545 1551 1548 1541 1545 1536 1523 1521 1521 1522 1524 1526 1527 1528 1528 1528 1528 1528 1527 1526 1525 1524 1523 1521 1519 1518 1516 1513 1511 1509 1506 1504 1501 1499 1496
1531 1532 1524 1524 1525 1530 1533 1537 1548 1549 1552 1551 1543 1544 1528 1520 1518 1518 1520 1523 1525 1527 1528 1528 1528 1528 1528 1527 1526 1525 1523 1521 1519 1517 1515 1513 1510 1507 1505 1502 1499 1496 1494 1491
1530 1530 1524 1523 1524 1527 1533 1537 1539 1550 1551 1553 1546 1538 1525 1519 1518 1518 1520 1522 1524 1525 1526 1527 1527 1527 1527 1526 1525 1523 1521 1519 1517 1514 1512 1509 1506 1503 1500 1498 1495 1492 1489 1485
1521 1526 1525 1524 1525 1527 1529 1535 1545 1549 1550 1551 1545 1539 1530 1519 1519 1519 1520 1521 1522 1524 1525 1525 1526 1526 1525 1524 1523 1521 1518 1516 1513 1511 1508 1505 1502 1499 1496 1493 1490 1486 1483 1479
1517 1524 1527 1526 1528 1528 1533 1535 1539 1548 1550 1552 1551 1537 1519 1516 1516 1517 1518 1519 1520 1521 1522 1523 1524 1524 1523 1522 1520 1518 1515 1512 1509 1507 1504 1501 1498 1495 1491 1488 1484 1480 1476 1472
1517 1526 1530 1527 1525 1525 1526 1530 1537 1541 1545 1551 1551 1537 1513 1513 1512 1514 1516 1517 1518 1519 1520 1521 1522 1522 1521 1519 1517 1514 1511 1508 1505 1503 1500 1497 1494 1490 1486 1482 1478 1474 1469 1464
1515 1524 1531 1529 1531 1528 1527 1528 1531 1535 1542 1552 1550 1531 1514 1512 1512 1513 1514 1515 1516 1518 1519 1520 1520 1519 1518 1515 1513 1510 1507 1504 1502 1499 1495 1492 1488 1484 1480 1475 1470 1465 1460 1455
1510 1520 1525 1527 1525 1523 1524 1525 1529 1533 1539 1542 1535 1521 1514 1512 1512 1512 1513 1514 1515 1516 1517 1518 1517 1516 1514 1512 1509 1506 1504 1501 1498 1494 1491 1487 1482 1477 1472 1467 1462 1457 1451 1445
1509 1517 1518 1518 1517 1519 1519 1519 1523 1525 1523 1523 1517 1515 1509 1508 1508 1509 1510 1512 1513 1515 1515 1515 1514 1512 1510 1508 1505 1503 1500 1497 1493 1489 1485 1480 1476 1470 1465 1459 1454 1448 1442 1436
1509 1515 1518 1518 1517 1520 1521 1516 1516 1515 1515 1515 1512 1509 1504 1503 1504 1507 1508 1510 1511 1513 1513 1512 1511 1509 1506 1504 1501 1499 1496 1492 1488 1484 1479 1474 1468 1463 1457 1451 1445 1439 1433 1426
1511 1516 1521 1523 1520 1518 1519 1506 1506 1508 1507 1508 1508 1504 1502 1503 1504 1505 1507 1508 1509 1510 1510 1509 1507 1505 1503 1500 1498 1494 1491 1487 1483 1478 1473 1467 1461 1455 1449 1443 1436 1430 1423 1416
1510 1514 1521 1524 1521 1523 1503 1497 1498 1500 1500 1500 1500 1500 1501 1502 1503 1505 1506 1507 1507 1507 1507 1505 1503 1501 1499 1497 1494 1490 1486 1482 1477 1472 1466 1461 1454 1447 1441 1434 1427 1420 1413 1406
1505 1511 1522 1527 1524 1515 1502 1495 1496 1499 1498 1496 1497 1499 1501 1502 1503 1504 1504 1505 1505 1505 1503 1502 1500 1498 1495 1493 1489 1485 1481 1476 1471 1465 1459 1453 1447 1440 1433 1426 1419 1412 1404 1396
1507 1509 1518 1525 1522 1515 1497 1491 1491 1495 1497 1494 1494 1497 1500 1502 1506 1505 1503 1502 1502 1501 1500 1498 1496 1494 1492 1488 1484 1480 1475 1470 1464 1458 1452 1446 1440 1433 1425 1418 1410 1403 1396 1388
1510 1512 1516 1519 1518 1505 1491 1489 1491 1499 1493 1491 1493 1495 1497 1499 1501 1501 1500 1500 1499 1498 1496 1495 1493 1490 1487 1483 1479 1474 1469 1463 1457 1451 1445 1439 1432 1426 1418 1410 1402 1395 1387 1379
1500 1507 1511 1514 1516 1503 1486 1488 1490 1489 1487 1489 1492 1494 1496 1497 1497 1497 1497 1496 1495 1494 1493 1491 1488 1486 1483 1479 1473 1467 1462 1457 1450 1443 1437 1430 1424 1417 1410 1402 1394 1387 1379 1371
1493 1490 1493 1494 1490 1485 1483 1483 1484 1485 1487 1489 1491 1492 1493 1494 1494 1494 1494 1493 1492 1491 1489 1487 1484 1480 1477 1473 1468 1461 1455 1449 1442 1435 1429 1422 1415 1409 1402 1394 1386 1378 1371 1364
1487 1486 1488 1489 1484 1482 1482 1482 1483 1485 1486 1488 1489 1490 1491 1491 1491 1491 1491 1490 1489 1487 1485 1482 1479 1474 1470 1466 1462 1456 1449 1442 1435 1427 1420 1414 1406 1399 1392 1386 1379 1372 1364 1357
1480 1484 1485 1485 1481 1480 1480 1481 1482 1484 1485 1486 1487 1488 1488 1488 1488 1488 1487 1486 1485 1483 1480 1477 1473 1468 1463 1459 1454 1448 1442 1435 1427 1420 1413 1406 1399 1391 1384 1377 1372 1365 1358 1354
1477 1478 1481 1479 1476 1477 1477 1478 1481 1482 1483 1484 1485 1485 1486 1486 1486 1485 1484 1483 1480 1478 1475 1471 1467 1462 1457 1451 1446 1440 1435 1428 1420 1412 1405 1398 1391 1384 1377 1369 1361 1356 1352 1346